Hlavní strana
METAR-TAF:

METAR-TAF

Letiště :

Syros, Řecko

zeměpisná šířka: 37-25-16N, zeměpisná délka: 024-56-54E, výška: 73 m

Aktuální stav počasí

Zpráva byla vytvořena před 35 minutami, v 12:50 UTC
Severoseverozápadní vítr 14 kt, proměnlivý mezi severozápadním a severoseverovýchodním
Teplota 13°C
Vlhkost vzduchu 62%
Tlak 1023 hPa
slabý déšť

METAR: LGSO 171250Z AUTO 34014KT 310V020 //// -RA ////// 13/06 Q1023 RE//

Čas: 15:25 (13:25 UTC)


TAF: chybějící

Stav a předpovědi počasí z více než 4 000 letišť (zprávy METAR a TAF).

Červené a žluté tečky na mapě představují dostupné meteorologické stanice.

Když kurzor umístíte na tečku, zobrazí se název stanice.

Pak kliknutím zobrazíte stav a předpověď počasí.

Chcete-li změnit mapu, kliknutím na zelené tlačítko se znaménkem +mapu přiblížíte, kliknutím na zelené tlačítko se znaménkem – mapu oddálíte a kliknutím na zelené šipky přejdete na sousední mapy.


METAR-TAF: